Simultaneous Nadir Overpasses (SNOs) Predictions

Prediction of SNOs between GOES-17 and AQUA Satellite Orbit:

Table of predicted SNOs for the next 14.0 days since TLE Epoch: 2/11/2023
Index Date Time (GOES-17) GOES-17 Lat,Lon AQUA Lat,Lon Distance(km) Time Diff (sec)
1 02/11/2023 08:40:47 -0.01,-103.29 0.21,-104.31 117.00 80
2 02/13/2023 08:30:04 -0.02,-101.72 -0.15,-101.00 80.72 80
3 02/15/2023 08:16:40 -0.02,-100.15 -0.53, -97.69 278.54 80
4 02/15/2023 20:35:05 0.03, -99.76 -0.65,-102.79 345.42 80
5 02/17/2023 08:03:15 -0.03, -98.57 -0.92, -94.38 476.61 80
6 02/17/2023 20:21:40 0.03, -98.18 -0.24, -99.48 147.19 80
7 02/19/2023 20:10:53 0.04, -96.61 0.12, -96.15 51.89 80
8 02/21/2023 19:57:25 0.04, -95.04 0.49, -92.82 252.36 80
9 02/22/2023 08:15:41 -0.04, -94.63 0.65, -97.88 370.03 80
10 02/23/2023 19:43:56 0.04, -93.48 0.87, -89.49 453.93 80
11 02/24/2023 08:02:12 -0.04, -93.07 0.25, -94.55 168.25 80
